Terminal Aerodrome Forecast
Issued by NWS Pittsburgh, PA

Current Version | Previous Version | Text Only | Print | Product List | Glossary Off
Versions: 1 2 3 4 5 6 7 8 9 10 11 12 13 14 15 16 17 18 19 20 21 22 23 24 25 26 27 28 29 30 31 32 33 34 35 36 37 38 39

000
FTUS41 KPBZ 281800 AAA
TAFPIT
TAF AMD
KPIT 281826Z 2818/2924 32012G22KT P6SM -SHRA OVC020
      TEMPO 2818/2820 2SM SHRA
     FM282200 31012KT P6SM BKN035
     FM290200 30005KT P6SM BKN035=

USA.gov is the U.S. government's official web portal to all federal, state and local government web resources and services.